Time,TemperatureF,DewpointF,PressureIn,WindDirection,WindDirectionDegrees,WindSpeedMPH,WindSpeedGustMPH,Humidity,HourlyPrecipIn,Conditions,Clouds,dailyrainin,SoftwareType,DateUTC
2013-08-19 00:11:00,59.1,59.0,30.07,ENE,67,0.0,1.0,99,0.00,,,0.00,weatherlink.com 1.10,2013-08-19 04:11:00,
2013-08-19 00:26:00,59.0,59.0,30.06,ENE,67,0.0,0.0,99,0.00,,,0.00,weatherlink.com 1.10,2013-08-19 04:26:00,
2013-08-19 00:41:00,58.9,59.0,30.06,ENE,66,0.0,0.0,99,0.00,,,0.00,weatherlink.com 1.10,2013-08-19 04:41:00,
2013-08-19 01:11:00,58.9,59.0,30.07,ENE,67,0.0,0.0,99,0.00,,,0.00,weatherlink.com 1.10,2013-08-19 05:11:00,
2013-08-19 01:26:00,58.8,59.0,30.07,ENE,66,0.0,0.0,99,0.00,,,0.00,weatherlink.com 1.10,2013-08-19 05:26:00,
2013-08-19 01:41:00,58.9,59.0,30.06,ENE,67,0.0,0.0,99,0.00,,,0.00,weatherlink.com 1.10,2013-08-19 05:41:00,
2013-08-19 01:56:00,59.1,59.0,30.06,ENE,67,0.0,0.0,100,0.00,,,0.00,weatherlink.com 1.10,2013-08-19 05:56:00,
2013-08-19 02:11:00,58.9,59.0,30.05,ENE,67,0.0,0.0,99,0.00,,,0.00,weatherlink.com 1.10,2013-08-19 06:11:00,
2013-08-19 02:26:00,58.7,59.0,30.05,ENE,67,0.0,0.0,99,0.00,,,0.00,weatherlink.com 1.10,2013-08-19 06:26:00,
2013-08-19 02:41:00,58.6,58.0,30.05,ENE,67,0.0,0.0,99,0.00,,,0.00,weatherlink.com 1.10,2013-08-19 06:41:00,
2013-08-19 02:56:00,58.6,59.0,30.05,ENE,66,0.0,0.0,100,0.00,,,0.00,weatherlink.com 1.10,2013-08-19 06:56:00,
2013-08-19 03:11:00,58.6,59.0,30.05,ENE,67,0.0,0.0,100,0.00,,,0.00,weatherlink.com 1.10,2013-08-19 07:11:00,
2013-08-19 03:26:00,58.4,58.0,30.05,ENE,66,0.0,0.0,100,0.00,,,0.00,weatherlink.com 1.10,2013-08-19 07:26:00,
2013-08-19 03:41:00,58.3,58.0,30.05,ENE,67,0.0,0.0,100,0.00,,,0.00,weatherlink.com 1.10,2013-08-19 07:41:00,
2013-08-19 03:56:00,58.4,58.0,30.05,ENE,67,0.0,0.0,100,0.00,,,0.00,weatherlink.com 1.10,2013-08-19 07:56:00,
2013-08-19 04:11:00,58.5,59.0,30.05,ENE,66,0.0,0.0,100,0.00,,,0.00,weatherlink.com 1.10,2013-08-19 08:11:00,
2013-08-19 04:26:00,58.5,59.0,30.05,ENE,67,0.0,0.0,100,0.00,,,0.00,weatherlink.com 1.10,2013-08-19 08:26:00,
2013-08-19 04:41:00,58.4,58.0,30.04,ENE,67,0.0,0.0,100,0.00,,,0.00,weatherlink.com 1.10,2013-08-19 08:41:00,
2013-08-19 04:56:00,57.8,58.0,30.04,ENE,67,0.0,0.0,100,0.00,,,0.00,weatherlink.com 1.10,2013-08-19 08:56:00,
2013-08-19 05:11:00,57.4,57.0,30.04,ENE,67,0.0,0.0,100,0.00,,,0.00,weatherlink.com 1.10,2013-08-19 09:11:00,
2013-08-19 05:26:00,56.8,57.0,30.04,ENE,66,0.0,0.0,99,0.00,,,0.00,weatherlink.com 1.10,2013-08-19 09:26:00,
2013-08-19 05:41:00,56.8,57.0,30.04,ENE,67,0.0,0.0,100,0.00,,,0.00,weatherlink.com 1.10,2013-08-19 09:41:00,
2013-08-19 05:56:00,56.9,57.0,30.05,ENE,67,0.0,0.0,100,0.00,,,0.00,weatherlink.com 1.10,2013-08-19 09:56:00,
2013-08-19 06:11:00,56.9,57.0,30.05,ENE,67,0.0,0.0,100,0.00,,,0.00,weatherlink.com 1.10,2013-08-19 10:11:00,
2013-08-19 06:27:00,57.2,57.0,30.05,ENE,67,0.0,0.0,100,0.00,,,0.00,weatherlink.com 1.10,2013-08-19 10:27:00,
2013-08-19 06:41:00,57.3,57.0,30.05,ENE,67,0.0,0.0,100,0.00,,,0.00,weatherlink.com 1.10,2013-08-19 10:41:00,
2013-08-19 06:56:00,57.9,58.0,30.05,ENE,67,0.0,0.0,100,0.00,,,0.00,weatherlink.com 1.10,2013-08-19 10:56:00,
2013-08-19 07:11:00,58.7,59.0,30.05,ENE,67,0.0,0.0,100,0.00,,,0.00,weatherlink.com 1.10,2013-08-19 11:11:00,
2013-08-19 07:26:00,59.6,60.0,30.04,ENE,67,0.0,0.0,100,0.00,,,0.00,weatherlink.com 1.10,2013-08-19 11:26:00,
2013-08-19 07:41:00,61.0,61.0,30.05,ENE,67,0.0,1.0,100,0.00,,,0.00,weatherlink.com 1.10,2013-08-19 11:41:00,
2013-08-19 07:57:00,62.3,62.0,30.05,ENE,65,0.0,0.0,100,0.00,,,0.00,weatherlink.com 1.10,2013-08-19 11:57:00,
2013-08-19 08:12:00,63.0,63.0,30.06,ENE,69,0.0,1.0,100,0.00,,,0.00,weatherlink.com 1.10,2013-08-19 12:12:00,
2013-08-19 08:27:00,63.8,64.0,30.05,ESE,113,0.0,1.0,100,0.00,,,0.00,weatherlink.com 1.10,2013-08-19 12:27:00,
2013-08-19 08:42:00,64.7,65.0,30.05,West,260,1.0,1.0,100,0.00,,,0.00,weatherlink.com 1.10,2013-08-19 12:42:00,
2013-08-19 08:57:00,65.7,65.0,30.04,ESE,121,0.0,2.0,98,0.00,,,0.00,weatherlink.com 1.10,2013-08-19 12:57:00,
2013-08-19 09:12:00,67.1,64.0,30.04,WSW,255,0.0,3.0,90,0.00,,,0.00,weatherlink.com 1.10,2013-08-19 13:12:00,
2013-08-19 09:27:00,68.1,64.0,30.04,North,355,0.0,3.0,87,0.00,,,0.00,weatherlink.com 1.10,2013-08-19 13:27:00,
2013-08-19 09:42:00,68.6,64.0,30.04,NNE,12,1.0,4.0,85,0.00,,,0.00,weatherlink.com 1.10,2013-08-19 13:42:00,
2013-08-19 09:57:00,69.1,64.0,30.04,NNE,13,1.0,3.0,83,0.00,,,0.00,weatherlink.com 1.10,2013-08-19 13:57:00,
2013-08-19 10:12:00,69.9,64.0,30.04,ENE,64,1.0,4.0,81,0.00,,,0.00,weatherlink.com 1.10,2013-08-19 14:12:00,
2013-08-19 10:27:00,70.7,65.0,30.04,South,186,1.0,5.0,82,0.00,,,0.00,weatherlink.com 1.10,2013-08-19 14:27:00,
2013-08-19 10:42:00,71.2,64.0,30.04,North,4,1.0,4.0,79,0.00,,,0.00,weatherlink.com 1.10,2013-08-19 14:42:00,
2013-08-19 10:57:00,71.9,64.0,30.03,NW,316,3.0,4.0,77,0.00,,,0.00,weatherlink.com 1.10,2013-08-19 14:57:00,
2013-08-19 11:12:00,72.4,65.0,30.02,North,8,6.0,6.0,77,0.00,,,0.00,weatherlink.com 1.10,2013-08-19 15:12:00,
2013-08-19 11:27:00,72.8,65.0,30.02,NNE,22,4.0,4.0,76,0.00,,,0.00,weatherlink.com 1.10,2013-08-19 15:27:00,
2013-08-19 11:42:00,74.0,66.0,30.02,SSE,148,0.0,3.0,75,0.00,,,0.00,weatherlink.com 1.10,2013-08-19 15:42:00,
2013-08-19 11:57:00,74.5,65.0,30.02,NNE,23,2.0,3.0,73,0.00,,,0.00,weatherlink.com 1.10,2013-08-19 15:57:00,
2013-08-19 12:12:00,75.6,67.0,30.02,NNE,30,0.0,5.0,74,0.00,,,0.00,weatherlink.com 1.10,2013-08-19 16:12:00,
2013-08-19 12:27:00,76.6,65.0,30.01,North,352,0.0,3.0,68,0.00,,,0.00,weatherlink.com 1.10,2013-08-19 16:27:00,
2013-08-19 12:42:00,76.9,66.0,30.01,NNE,25,2.0,4.0,69,0.00,,,0.00,weatherlink.com 1.10,2013-08-19 16:42:00,
2013-08-19 12:57:00,77.5,65.0,30.00,North,353,0.0,5.0,65,0.00,,,0.00,weatherlink.com 1.10,2013-08-19 16:57:00,
2013-08-19 13:13:00,77.8,64.0,30.00,NE,41,0.0,4.0,62,0.00,,,0.00,weatherlink.com 1.10,2013-08-19 17:13:00,
2013-08-19 13:28:00,78.8,67.0,30.00,West,277,0.0,2.0,67,0.00,,,0.00,weatherlink.com 1.10,2013-08-19 17:28:00,
2013-08-19 13:43:00,79.9,62.0,29.99,SW,214,1.0,6.0,55,0.00,,,0.00,weatherlink.com 1.10,2013-08-19 17:43:00,
2013-08-19 13:58:00,80.7,61.0,29.99,SW,217,5.0,8.0,52,0.00,,,0.00,weatherlink.com 1.10,2013-08-19 17:58:00,
2013-08-19 14:13:00,80.6,61.0,29.98,NNE,17,0.0,6.0,52,0.00,,,0.00,weatherlink.com 1.10,2013-08-19 18:13:00,
2013-08-19 14:28:00,81.3,60.0,29.98,North,349,1.0,6.0,48,0.00,,,0.00,weatherlink.com 1.10,2013-08-19 18:28:00,
2013-08-19 14:43:00,81.3,60.0,29.97,North,10,5.0,6.0,48,0.00,,,0.00,weatherlink.com 1.10,2013-08-19 18:43:00,
2013-08-19 14:58:00,82.8,62.0,29.97,SW,219,1.0,6.0,50,0.00,,,0.00,weatherlink.com 1.10,2013-08-19 18:58:00,
2013-08-19 15:13:00,83.8,61.0,29.96,South,188,0.0,4.0,47,0.00,,,0.00,weatherlink.com 1.10,2013-08-19 19:13:00,
2013-08-19 15:28:00,82.6,61.0,29.96,NNE,16,0.0,4.0,48,0.00,,,0.00,weatherlink.com 1.10,2013-08-19 19:28:00,
2013-08-19 15:44:00,81.8,62.0,29.96,North,3,0.0,5.0,51,0.00,,,0.00,weatherlink.com 1.10,2013-08-19 19:44:00,
2013-08-19 15:58:00,82.0,63.0,29.96,SSE,150,1.0,6.0,53,0.00,,,0.00,weatherlink.com 1.10,2013-08-19 19:58:00,
2013-08-19 16:13:00,83.3,64.0,29.95,SE,137,0.0,5.0,53,0.00,,,0.00,weatherlink.com 1.10,2013-08-19 20:13:00,
2013-08-19 16:28:00,82.1,64.0,29.95,NW,314,0.0,5.0,54,0.00,,,0.00,weatherlink.com 1.10,2013-08-19 20:28:00,
2013-08-19 16:43:00,80.4,63.0,29.95,NNE,28,0.0,5.0,56,0.00,,,0.00,weatherlink.com 1.10,2013-08-19 20:43:00,
2013-08-19 16:58:00,79.7,63.0,29.95,ENE,67,0.0,4.0,57,0.00,,,0.00,weatherlink.com 1.10,2013-08-19 20:58:00,
2013-08-19 17:13:00,81.5,64.0,29.95,SSW,207,3.0,4.0,55,0.00,,,0.00,weatherlink.com 1.10,2013-08-19 21:13:00,
2013-08-19 17:28:00,81.2,62.0,29.95,SSE,166,0.0,6.0,53,0.00,,,0.00,weatherlink.com 1.10,2013-08-19 21:28:00,
2013-08-19 17:43:00,79.2,65.0,29.95,North,1,1.0,2.0,61,0.00,,,0.00,weatherlink.com 1.10,2013-08-19 21:43:00,
2013-08-19 17:58:00,77.9,63.0,29.95,SSW,201,0.0,4.0,60,0.00,,,0.00,weatherlink.com 1.10,2013-08-19 21:58:00,
2013-08-19 18:13:00,77.1,65.0,29.95,ESE,105,0.0,2.0,66,0.00,,,0.00,weatherlink.com 1.10,2013-08-19 22:13:00,
2013-08-19 18:28:00,75.5,66.0,29.96,SE,141,0.0,2.0,72,0.00,,,0.00,weatherlink.com 1.10,2013-08-19 22:28:00,
2013-08-19 18:43:00,75.4,63.0,29.96,NNE,25,0.0,0.0,65,0.00,,,0.00,weatherlink.com 1.10,2013-08-19 22:43:00,
2013-08-19 18:58:00,75.2,64.0,29.96,ENE,73,0.0,1.0,69,0.00,,,0.00,weatherlink.com 1.10,2013-08-19 22:58:00,
2013-08-19 19:13:00,74.3,64.0,29.96,SE,143,0.0,1.0,70,0.00,,,0.00,weatherlink.com 1.10,2013-08-19 23:13:00,
2013-08-19 19:28:00,72.9,65.0,29.95,ENE,75,0.0,1.0,76,0.00,,,0.00,weatherlink.com 1.10,2013-08-19 23:28:00,
2013-08-19 19:43:00,71.1,64.0,29.95,ENE,75,0.0,1.0,79,0.00,,,0.00,weatherlink.com 1.10,2013-08-19 23:43:00,
2013-08-19 19:58:00,69.4,64.0,29.95,ENE,75,0.0,0.0,82,0.00,,,0.00,weatherlink.com 1.10,2013-08-19 23:58:00,
2013-08-19 20:13:00,68.1,63.0,29.95,East,81,0.0,0.0,83,0.00,,,0.00,weatherlink.com 1.10,2013-08-20 00:13:00,
2013-08-19 20:28:00,67.1,62.0,29.96,East,86,0.0,1.0,84,0.00,,,0.00,weatherlink.com 1.10,2013-08-20 00:28:00,
2013-08-19 20:43:00,66.1,62.0,29.96,East,86,0.0,0.0,85,0.00,,,0.00,weatherlink.com 1.10,2013-08-20 00:43:00,
2013-08-19 20:58:00,65.0,61.0,29.96,East,86,0.0,0.0,86,0.00,,,0.00,weatherlink.com 1.10,2013-08-20 00:58:00,
2013-08-19 21:13:00,64.0,60.0,29.96,East,86,0.0,0.0,88,0.00,,,0.00,weatherlink.com 1.10,2013-08-20 01:13:00,
2013-08-19 21:28:00,63.3,60.0,29.96,East,86,0.0,0.0,90,0.00,,,0.00,weatherlink.com 1.10,2013-08-20 01:28:00,
2013-08-19 21:43:00,62.8,60.0,29.97,East,86,0.0,0.0,91,0.00,,,0.00,weatherlink.com 1.10,2013-08-20 01:43:00,
2013-08-19 21:58:00,62.3,60.0,29.97,East,86,0.0,0.0,92,0.00,,,0.00,weatherlink.com 1.10,2013-08-20 01:58:00,
2013-08-19 22:13:00,61.7,60.0,29.97,East,86,0.0,0.0,93,0.00,,,0.00,weatherlink.com 1.10,2013-08-20 02:13:00,
2013-08-19 22:28:00,61.4,60.0,29.97,East,86,0.0,0.0,94,0.00,,,0.00,weatherlink.com 1.10,2013-08-20 02:28:00,
2013-08-19 22:43:00,60.9,60.0,29.98,East,86,0.0,0.0,95,0.00,,,0.00,weatherlink.com 1.10,2013-08-20 02:43:00,
2013-08-19 22:58:00,60.6,60.0,29.98,East,86,0.0,0.0,96,0.00,,,0.00,weatherlink.com 1.10,2013-08-20 02:58:00,
2013-08-19 23:13:00,60.3,59.0,29.98,East,86,0.0,0.0,96,0.00,,,0.00,weatherlink.com 1.10,2013-08-20 03:13:00,
2013-08-19 23:28:00,59.9,59.0,29.98,East,86,0.0,0.0,96,0.00,,,0.00,weatherlink.com 1.10,2013-08-20 03:28:00,
2013-08-19 23:43:00,59.7,59.0,29.98,East,86,0.0,0.0,97,0.00,,,0.00,weatherlink.com 1.10,2013-08-20 03:43:00,
2013-08-19 23:58:00,59.6,59.0,29.99,East,86,0.0,0.0,98,0.00,,,0.00,weatherlink.com 1.10,2013-08-20 03:58:00,